Retour au catalogue

TIANHUI 5D

ActifScienceSSO
NORAD 60212·PAYLOAD·🇨🇳 China

Lancé Jul 4, 2024 depuis Taiyuan Satellite Launch Center

Loading…

Prochains Passages (prochaines 24 heures)

TLE

FraisSource: Space-Track

Époque: Sep 14, 2026, 11:51 UTC

1 60212U 24126B   26257.49417656  .00000263  00000-0  34908-4 0  9999
2 60212  97.8213 263.7958 0002120  92.4667 267.6792 14.87579927119179

Suivez TIANHUI 5D en temps réel avec AllMySat

Download on the App Store